{"data":{"norad_id":64166,"intl_designator":"2025-112W","name":"STARLINK-34313","alt_names":[],"object_type":"PAYLOAD","status":"ACTIVE","operator":null,"country":"US","launch_date":"2025-05-27","launch_site_code":"AFWTR","launch_vehicle":null,"mission":null,"orbit_class":"UNKNOWN","rcs_meters":null,"size_class":null,"mass_kg":null,"dimensions":null,"purposes":["comms"],"wikipedia_slug":null,"has_3d_model":false,"image_url":null,"decayed_at":null,"tle_current":{"epoch":"2026-05-25T03:26:01.768992Z","epoch_age_seconds":69446,"freshness":"FRESH","line1":"1 64166U 25112W   26145.14307603  .00005974  00000+0  41754-3 0  9994","line2":"2 64166  97.4449 196.5389 0001992 134.4604 225.6786 15.05671105 54811","mean_motion":15.05671105,"eccentricity":0.0001992,"inclination_deg":97.4449,"raan_deg":196.5389,"arg_perigee_deg":134.4604,"mean_anomaly_deg":225.6786,"bstar":0.00041754,"rev_number":5481,"period_min":95.638416332629,"perigee_km":548.06644268345,"apogee_km":550.82639191691,"semimajor_km":6927.5834173002,"source":"CELESTRAK","updated_at":"2026-05-25T13:38:20.307370Z"}}}